ANA273 RJTT-RJFF

Flight info

Callsign ANA273
Flight time 1h 26m
Altitude 40000
Route GUSRO Y20 KIRIN
Aircraft B772/H-SDE2FGHIJ3J5LM1OP2RVWXY/LB1D1

Departure

Time 2026-05-07 10:51
Airport Tokyo Haneda International Airport (RJTT)

Arrival

Time 2026-05-07 12:17
Airport Fukuoka Airport (RJFF)
Time Latitude Longitude Altitude Speed Heading
2026-05-07 09:07 35.55323 139.78840 32 ft 0 kts 240°
2026-05-07 10:41 35.55325 139.78843 32 ft 3 kts 240°
2026-05-07 10:41 35.55338 139.78871 29 ft 3 kts 240°
2026-05-07 10:41 35.55348 139.78895 28 ft 4 kts 260°
2026-05-07 10:42 35.55345 139.78925 27 ft 4 kts 307°
2026-05-07 10:42 35.55326 139.78945 31 ft 3 kts 330°
2026-05-07 10:42 35.55304 139.78961 30 ft 3 kts 330°
2026-05-07 10:42 35.55301 139.78963 32 ft 0 kts 330°
2026-05-07 10:45 35.55302 139.78962 32 ft 1 kts 330°
2026-05-07 10:45 35.55335 139.78942 32 ft 11 kts 340°
2026-05-07 10:45 35.55405 139.78956 32 ft 11 kts 43°
2026-05-07 10:45 35.55449 139.79030 31 ft 11 kts 41°
2026-05-07 10:46 35.55520 139.79029 30 ft 11 kts 333°
2026-05-07 10:46 35.55605 139.78972 30 ft 21 kts 330°
2026-05-07 10:46 35.55739 139.78876 28 ft 23 kts 329°
2026-05-07 10:46 35.55877 139.78778 27 ft 23 kts 330°
2026-05-07 10:47 35.56014 139.78681 27 ft 23 kts 329°
2026-05-07 10:47 35.56151 139.78582 28 ft 23 kts 329°
2026-05-07 10:47 35.56285 139.78488 29 ft 19 kts 331°
2026-05-07 10:47 35.56337 139.78382 29 ft 16 kts 255°
2026-05-07 10:48 35.56284 139.78262 29 ft 16 kts 239°
2026-05-07 10:48 35.56228 139.78145 29 ft 16 kts 239°
2026-05-07 10:48 35.56171 139.78028 29 ft 17 kts 240°
2026-05-07 10:48 35.56089 139.77853 28 ft 28 kts 239°
2026-05-07 10:49 35.55992 139.77648 28 ft 28 kts 239°
2026-05-07 10:49 35.55906 139.77466 27 ft 18 kts 240°
2026-05-07 10:49 35.55851 139.77356 27 ft 15 kts 232°
2026-05-07 10:49 35.55771 139.77277 30 ft 15 kts 216°
2026-05-07 10:50 35.55720 139.77232 26 ft 7 kts 215°
2026-05-07 10:50 35.55677 139.77195 28 ft 9 kts 215°
2026-05-07 10:50 35.55609 139.77186 29 ft 10 kts 156°
2026-05-07 10:50 35.55593 139.77197 29 ft 11 kts 152°
2026-05-07 10:51 35.55348 139.77368 27 ft 80 kts 150°
2026-05-07 10:51 35.54632 139.77890 40 ft 155 kts 153°
2026-05-07 10:51 35.53634 139.78593 690 ft 176 kts 153°
2026-05-07 10:51 35.52518 139.79356 1544 ft 197 kts 155°
2026-05-07 10:52 35.51247 139.80228 2216 ft 216 kts 154°
2026-05-07 10:52 35.49851 139.81223 2548 ft 245 kts 156°
2026-05-07 10:52 35.48233 139.81722 3199 ft 246 kts 189°
2026-05-07 10:52 35.46663 139.80946 4160 ft 247 kts 220°
2026-05-07 10:53 35.45672 139.79220 5058 ft 252 kts 249°
2026-05-07 10:53 35.45164 139.77143 5886 ft 255 kts 255°
2026-05-07 10:53 35.45095 139.74948 6598 ft 267 kts 282°
2026-05-07 10:53 35.45980 139.72942 7629 ft 273 kts 308°
2026-05-07 10:54 35.47532 139.71536 8570 ft 285 kts 332°
2026-05-07 10:54 35.49475 139.70939 9406 ft 293 kts 347°
2026-05-07 10:54 35.51522 139.70579 10186 ft 300 kts 347°
2026-05-07 10:54 35.53654 139.70192 10634 ft 321 kts 346°
2026-05-07 10:55 35.55823 139.69398 10754 ft 334 kts 324°
2026-05-07 10:55 35.57512 139.67393 11093 ft 345 kts 297°
2026-05-07 10:55 35.58594 139.64800 11685 ft 350 kts 292°
2026-05-07 10:55 35.59687 139.62076 12546 ft 358 kts 293°
2026-05-07 10:56 35.60811 139.59326 13614 ft 361 kts 293°
2026-05-07 10:56 35.61955 139.56548 14494 ft 366 kts 293°
2026-05-07 10:56 35.63119 139.53735 15330 ft 372 kts 294°
2026-05-07 10:56 35.64225 139.50837 16054 ft 376 kts 287°
2026-05-07 10:57 35.64864 139.47708 16813 ft 380 kts 276°
2026-05-07 10:57 35.65058 139.44459 17599 ft 384 kts 268°
2026-05-07 10:57 35.64975 139.41208 18322 ft 389 kts 267°
2026-05-07 10:57 35.64865 139.37856 18988 ft 394 kts 266°
2026-05-07 10:58 35.64750 139.34471 19691 ft 398 kts 266°
2026-05-07 10:58 35.64636 139.31052 20394 ft 402 kts 266°
2026-05-07 10:58 35.64525 139.27602 21078 ft 406 kts 266°
2026-05-07 10:58 35.64416 139.24118 21756 ft 410 kts 266°
2026-05-07 10:59 35.64308 139.20601 22431 ft 414 kts 266°
2026-05-07 10:59 35.64199 139.17038 23095 ft 419 kts 266°
2026-05-07 10:59 35.64090 139.13442 23714 ft 423 kts 266°
2026-05-07 10:59 35.63979 139.09812 24294 ft 426 kts 266°
2026-05-07 11:00 35.63868 139.06183 24929 ft 428 kts 266°
2026-05-07 11:00 35.63756 139.02547 25523 ft 429 kts 265°
2026-05-07 11:00 35.63641 138.98870 26043 ft 433 kts 265°
2026-05-07 11:00 35.63523 138.95146 26576 ft 436 kts 265°
2026-05-07 11:01 35.63404 138.91419 27088 ft 439 kts 265°
2026-05-07 11:01 35.63281 138.87635 27578 ft 443 kts 265°
2026-05-07 11:01 35.63158 138.83840 28058 ft 445 kts 265°
2026-05-07 11:01 35.63033 138.80015 28551 ft 448 kts 265°
2026-05-07 11:02 35.62906 138.76173 29000 ft 452 kts 265°
2026-05-07 11:02 35.62775 138.72296 29416 ft 455 kts 265°
2026-05-07 11:02 35.62643 138.68397 29826 ft 458 kts 265°
2026-05-07 11:02 35.62511 138.64526 30186 ft 461 kts 265°
2026-05-07 11:03 35.62375 138.60575 30476 ft 463 kts 265°
2026-05-07 11:03 35.62237 138.56600 30767 ft 466 kts 265°
2026-05-07 11:03 35.62098 138.52616 31045 ft 467 kts 265°
2026-05-07 11:03 35.61957 138.48616 31308 ft 469 kts 265°
2026-05-07 11:04 35.61813 138.44596 31586 ft 471 kts 265°
2026-05-07 11:04 35.61668 138.40573 31947 ft 469 kts 265°
2026-05-07 11:04 35.61524 138.36570 32327 ft 467 kts 265°
2026-05-07 11:04 35.61379 138.32634 32678 ft 467 kts 265°
2026-05-07 11:05 35.61231 138.28652 33047 ft 466 kts 265°
2026-05-07 11:05 35.61082 138.24684 33462 ft 464 kts 265°
2026-05-07 11:05 35.60933 138.20738 33969 ft 460 kts 265°
2026-05-07 11:05 35.60785 138.16821 34417 ft 457 kts 265°
2026-05-07 11:06 35.60636 138.12931 34808 ft 455 kts 265°
2026-05-07 11:06 35.60486 138.09059 35116 ft 454 kts 265°
2026-05-07 11:06 35.60334 138.05191 35427 ft 453 kts 265°
2026-05-07 11:06 35.60181 138.01321 35775 ft 452 kts 265°
2026-05-07 11:07 35.60030 137.97473 36181 ft 449 kts 265°
2026-05-07 11:07 35.59877 137.93649 36575 ft 447 kts 265°
2026-05-07 11:07 35.59723 137.89842 36899 ft 446 kts 265°
2026-05-07 11:07 35.59568 137.86038 37171 ft 446 kts 265°
2026-05-07 11:08 35.59413 137.82238 37486 ft 444 kts 265°
2026-05-07 11:08 35.59256 137.78499 37813 ft 442 kts 264°
2026-05-07 11:08 35.59015 137.74741 38232 ft 438 kts 263°
2026-05-07 11:08 35.58718 137.71038 38692 ft 433 kts 262°
2026-05-07 11:09 35.58413 137.67356 38911 ft 434 kts 262°
2026-05-07 11:09 35.58117 137.63659 39085 ft 435 kts 263°
2026-05-07 11:09 35.57833 137.59960 39268 ft 435 kts 263°
2026-05-07 11:09 35.57553 137.56261 39498 ft 434 kts 263°
2026-05-07 11:10 35.57171 137.52591 39704 ft 432 kts 258°
2026-05-07 11:10 35.56513 137.48980 39849 ft 432 kts 253°
2026-05-07 11:10 35.54921 137.41849 39929 ft 433 kts 254°
2026-05-07 11:11 35.53363 137.34768 39958 ft 432 kts 254°
2026-05-07 11:11 35.51811 137.27644 39953 ft 432 kts 254°
2026-05-07 11:12 35.50247 137.20522 39952 ft 432 kts 253°
2026-05-07 11:12 35.48933 137.14608 39949 ft 432 kts 253°
2026-05-07 11:13 35.47347 137.07495 39936 ft 432 kts 253°
2026-05-07 11:13 35.45761 137.00383 39951 ft 432 kts 253°
2026-05-07 11:14 35.44171 136.93276 39933 ft 432 kts 253°
2026-05-07 11:14 35.42573 136.86156 39925 ft 433 kts 253°
2026-05-07 11:15 35.40980 136.79077 39931 ft 433 kts 253°
2026-05-07 11:15 35.39373 136.71953 39923 ft 434 kts 253°
2026-05-07 11:16 35.37759 136.64821 39929 ft 434 kts 253°
2026-05-07 11:16 35.36139 136.57686 39929 ft 434 kts 253°
2026-05-07 11:17 35.34517 136.50559 39924 ft 434 kts 253°
2026-05-07 11:17 35.32890 136.43435 39927 ft 434 kts 253°
2026-05-07 11:18 35.31264 136.36324 39922 ft 434 kts 253°
2026-05-07 11:18 35.29645 136.29251 39929 ft 434 kts 253°
2026-05-07 11:19 35.28012 136.22134 39923 ft 434 kts 253°
2026-05-07 11:19 35.26377 136.15027 39927 ft 433 kts 253°
2026-05-07 11:20 35.24737 136.07923 39928 ft 432 kts 253°
2026-05-07 11:20 35.23098 136.00843 39928 ft 432 kts 253°
2026-05-07 11:21 35.21469 135.93825 39927 ft 431 kts 253°
2026-05-07 11:21 35.19829 135.86777 39933 ft 430 kts 253°
2026-05-07 11:22 35.18197 135.79724 39921 ft 431 kts 254°
2026-05-07 11:22 35.16947 135.72560 39932 ft 431 kts 257°
2026-05-07 11:23 35.15758 135.65388 39938 ft 431 kts 257°
2026-05-07 11:23 35.14551 135.58210 39936 ft 431 kts 257°
2026-05-07 11:24 35.13329 135.51022 39939 ft 432 kts 257°
2026-05-07 11:24 35.12102 135.43837 39947 ft 432 kts 256°
2026-05-07 11:25 35.10872 135.36661 39937 ft 432 kts 256°
2026-05-07 11:25 35.09645 135.29524 39940 ft 432 kts 256°
2026-05-07 11:26 35.08413 135.22344 39938 ft 432 kts 256°
2026-05-07 11:26 35.07187 135.15167 39931 ft 431 kts 256°
2026-05-07 11:27 35.05958 135.08001 39941 ft 431 kts 256°
2026-05-07 11:27 35.04731 135.00872 39948 ft 431 kts 256°
2026-05-07 11:28 35.03491 134.93705 39947 ft 430 kts 256°
2026-05-07 11:28 35.02237 134.86560 39940 ft 430 kts 256°
2026-05-07 11:29 35.00971 134.79426 39937 ft 430 kts 256°
2026-05-07 11:29 34.99714 134.72350 39930 ft 429 kts 256°
2026-05-07 11:30 34.98413 134.65231 39940 ft 429 kts 255°
2026-05-07 11:30 34.97009 134.58155 39965 ft 430 kts 255°
2026-05-07 11:31 34.95591 134.51076 39953 ft 429 kts 255°
2026-05-07 11:31 34.94179 134.43978 39938 ft 430 kts 255°
2026-05-07 11:32 34.92074 134.33394 39943 ft 430 kts 255°
2026-05-07 11:33 34.90658 134.26303 39951 ft 430 kts 255°
2026-05-07 11:33 34.89239 134.19230 39937 ft 430 kts 255°
2026-05-07 11:34 34.87818 134.12159 39943 ft 429 kts 255°
2026-05-07 11:34 34.86394 134.05092 39936 ft 429 kts 255°
2026-05-07 11:35 34.84975 133.98079 39944 ft 428 kts 255°
2026-05-07 11:35 34.83551 133.91058 39926 ft 428 kts 255°
2026-05-07 11:36 34.82118 133.84028 39933 ft 427 kts 255°
2026-05-07 11:36 34.80651 133.77043 39944 ft 426 kts 255°
2026-05-07 11:37 34.79169 133.70063 39938 ft 426 kts 255°
2026-05-07 11:37 34.77686 133.63085 39931 ft 425 kts 255°
2026-05-07 11:38 34.76227 133.56217 39925 ft 413 kts 255°
2026-05-07 11:38 34.75513 133.52863 39770 ft 408 kts 255°
2026-05-07 11:38 34.74804 133.49534 39470 ft 407 kts 255°
2026-05-07 11:38 34.74092 133.46203 39186 ft 406 kts 255°
2026-05-07 11:39 34.73380 133.42875 38854 ft 407 kts 254°
2026-05-07 11:39 34.72667 133.39544 38492 ft 408 kts 254°
2026-05-07 11:39 34.71948 133.36198 38076 ft 409 kts 254°
2026-05-07 11:39 34.71229 133.32849 37949 ft 410 kts 254°
2026-05-07 11:40 34.70503 133.29477 37941 ft 413 kts 254°
2026-05-07 11:40 34.69054 133.22757 37941 ft 413 kts 254°
2026-05-07 11:41 34.67594 133.16002 37936 ft 412 kts 254°
2026-05-07 11:41 34.66135 133.09270 37934 ft 412 kts 254°
2026-05-07 11:42 34.64668 133.02523 37923 ft 412 kts 255°
2026-05-07 11:42 34.63206 132.95822 37930 ft 413 kts 255°
2026-05-07 11:43 34.61729 132.89068 37930 ft 414 kts 255°
2026-05-07 11:43 34.60246 132.82303 37928 ft 415 kts 255°
2026-05-07 11:44 34.58754 132.75521 37924 ft 415 kts 255°
2026-05-07 11:44 34.57273 132.68804 37920 ft 415 kts 255°
2026-05-07 11:45 34.55777 132.62044 37926 ft 414 kts 255°
2026-05-07 11:45 34.54280 132.55294 37928 ft 414 kts 255°
2026-05-07 11:46 34.52780 132.48543 37914 ft 413 kts 255°
2026-05-07 11:46 34.51353 132.42141 37926 ft 413 kts 255°
2026-05-07 11:47 34.49864 132.35397 37452 ft 419 kts 255°
2026-05-07 11:47 34.49110 132.31969 36819 ft 420 kts 255°
2026-05-07 11:47 34.48354 132.28541 36118 ft 421 kts 255°
2026-05-07 11:47 34.47606 132.25150 35387 ft 423 kts 255°
2026-05-07 11:48 34.46842 132.21694 34624 ft 427 kts 255°
2026-05-07 11:48 34.46071 132.18218 34028 ft 427 kts 255°
2026-05-07 11:48 34.45293 132.14755 33481 ft 425 kts 255°
2026-05-07 11:48 34.44501 132.11277 32984 ft 431 kts 255°
2026-05-07 11:49 34.43698 132.07768 32517 ft 433 kts 255°
2026-05-07 11:49 34.42894 132.04264 32015 ft 430 kts 255°
2026-05-07 11:49 34.42099 132.00797 31547 ft 424 kts 255°
2026-05-07 11:49 34.41314 131.97376 31102 ft 419 kts 255°
2026-05-07 11:50 34.40539 131.93998 30646 ft 415 kts 255°
2026-05-07 11:50 34.39768 131.90643 30199 ft 412 kts 254°
2026-05-07 11:50 34.39000 131.87304 29707 ft 409 kts 254°
2026-05-07 11:50 34.38237 131.83989 29207 ft 407 kts 254°
2026-05-07 11:51 34.37489 131.80740 28760 ft 404 kts 253°
2026-05-07 11:51 34.36734 131.77466 28324 ft 401 kts 254°
2026-05-07 11:51 34.35985 131.74225 27891 ft 398 kts 254°
2026-05-07 11:51 34.35241 131.71011 27445 ft 395 kts 254°
2026-05-07 11:52 34.34502 131.67818 27013 ft 392 kts 253°
2026-05-07 11:52 34.33766 131.64646 26589 ft 389 kts 253°
2026-05-07 11:52 34.33037 131.61501 26175 ft 386 kts 253°
2026-05-07 11:52 34.32327 131.58423 25732 ft 384 kts 253°
2026-05-07 11:53 34.31604 131.55286 25340 ft 381 kts 254°
2026-05-07 11:53 34.30904 131.52245 24926 ft 378 kts 253°
2026-05-07 11:53 34.30199 131.49194 24513 ft 376 kts 253°
2026-05-07 11:53 34.29498 131.46156 24096 ft 373 kts 253°
2026-05-07 11:54 34.28799 131.43133 23682 ft 371 kts 253°
2026-05-07 11:54 34.28105 131.40137 23229 ft 368 kts 253°
2026-05-07 11:54 34.27418 131.37174 22793 ft 364 kts 253°
2026-05-07 11:54 34.26735 131.34233 22390 ft 361 kts 253°
2026-05-07 11:55 34.26066 131.31363 21979 ft 358 kts 253°
2026-05-07 11:55 34.25386 131.28444 21585 ft 355 kts 253°
2026-05-07 11:55 34.24718 131.25578 21188 ft 353 kts 253°
2026-05-07 11:55 34.24055 131.22734 20802 ft 350 kts 253°
2026-05-07 11:56 34.23396 131.19909 20441 ft 349 kts 253°
2026-05-07 11:56 34.22735 131.17089 20063 ft 349 kts 253°
2026-05-07 11:56 34.22082 131.14306 19675 ft 348 kts 253°
2026-05-07 11:56 34.21423 131.11489 19314 ft 348 kts 253°
2026-05-07 11:57 34.20763 131.08672 18925 ft 349 kts 253°
2026-05-07 11:57 34.20102 131.05859 18536 ft 346 kts 253°
2026-05-07 11:57 34.19445 131.03070 18142 ft 342 kts 252°
2026-05-07 11:57 34.18689 131.00376 17845 ft 335 kts 247°
2026-05-07 11:58 34.17776 130.97814 17602 ft 330 kts 246°
2026-05-07 11:58 34.16862 130.95272 17422 ft 331 kts 246°
2026-05-07 11:58 34.15942 130.92703 17222 ft 336 kts 246°
2026-05-07 11:58 34.15015 130.90105 17031 ft 337 kts 246°
2026-05-07 11:59 34.14090 130.87506 16818 ft 335 kts 246°
2026-05-07 11:59 34.13173 130.84930 16614 ft 333 kts 246°
2026-05-07 11:59 34.12257 130.82363 16428 ft 331 kts 246°
2026-05-07 11:59 34.11339 130.79858 16224 ft 330 kts 246°
2026-05-07 12:00 34.10395 130.77347 16019 ft 328 kts 245°
2026-05-07 12:00 34.09452 130.74855 15839 ft 325 kts 246°
2026-05-07 12:00 34.08521 130.72373 15633 ft 324 kts 246°
2026-05-07 12:00 34.07593 130.69900 15453 ft 323 kts 246°
2026-05-07 12:01 34.06663 130.67425 15253 ft 323 kts 246°
2026-05-07 12:01 34.05735 130.64957 15077 ft 323 kts 246°
2026-05-07 12:01 34.04808 130.62492 14885 ft 324 kts 246°
2026-05-07 12:01 34.03876 130.60015 14694 ft 324 kts 246°
2026-05-07 12:02 34.02942 130.57535 14498 ft 325 kts 246°
2026-05-07 12:02 34.02006 130.55047 14318 ft 326 kts 246°
2026-05-07 12:02 34.01067 130.52559 14116 ft 326 kts 246°
2026-05-07 12:02 34.00127 130.50068 13925 ft 327 kts 246°
2026-05-07 12:03 33.99050 130.47713 13720 ft 325 kts 236°
2026-05-07 12:03 33.97658 130.45560 13525 ft 326 kts 232°
2026-05-07 12:03 33.96217 130.43451 13322 ft 326 kts 233°
2026-05-07 12:03 33.94799 130.41327 13118 ft 321 kts 234°
2026-05-07 12:04 33.93780 130.38992 13026 ft 317 kts 253°
2026-05-07 12:04 33.93410 130.36351 12971 ft 323 kts 267°
2026-05-07 12:04 33.93596 130.33649 12940 ft 324 kts 276°
2026-05-07 12:04 33.93903 130.30965 12938 ft 321 kts 274°
2026-05-07 12:05 33.93868 130.28293 12866 ft 319 kts 258°
2026-05-07 12:05 33.93182 130.25778 12430 ft 316 kts 246°
2026-05-07 12:05 33.92204 130.23408 11941 ft 316 kts 243°
2026-05-07 12:05 33.91167 130.21086 11440 ft 310 kts 242°
2026-05-07 12:06 33.90173 130.18891 10957 ft 294 kts 242°
2026-05-07 12:06 33.89211 130.16783 10462 ft 281 kts 242°
2026-05-07 12:06 33.88286 130.14765 9985 ft 270 kts 242°
2026-05-07 12:06 33.87392 130.12820 9472 ft 261 kts 242°
2026-05-07 12:07 33.86524 130.10933 8957 ft 254 kts 242°
2026-05-07 12:07 33.85680 130.09095 8427 ft 248 kts 242°
2026-05-07 12:07 33.84734 130.07396 7916 ft 243 kts 225°
2026-05-07 12:07 33.83263 130.06424 7409 ft 246 kts 195°
2026-05-07 12:08 33.81544 130.06500 6953 ft 254 kts 165°
2026-05-07 12:08 33.79936 130.07407 6505 ft 257 kts 154°
2026-05-07 12:08 33.78388 130.08493 6015 ft 258 kts 152°
2026-05-07 12:08 33.76853 130.09602 5518 ft 256 kts 152°
2026-05-07 12:09 33.75340 130.10703 5024 ft 252 kts 152°
2026-05-07 12:09 33.73930 130.11919 4516 ft 251 kts 136°
2026-05-07 12:09 33.73054 130.13736 4002 ft 253 kts 113°
2026-05-07 12:09 33.72494 130.15724 3509 ft 250 kts 112°
2026-05-07 12:10 33.71947 130.17674 3105 ft 248 kts 112°
2026-05-07 12:10 33.71398 130.19636 2730 ft 248 kts 112°
2026-05-07 12:10 33.70842 130.21603 2367 ft 250 kts 112°
2026-05-07 12:10 33.70283 130.23580 2034 ft 247 kts 112°
2026-05-07 12:11 33.69585 130.25457 2005 ft 246 kts 126°
2026-05-07 12:11 33.68577 130.27090 2003 ft 240 kts 131°
2026-05-07 12:11 33.67523 130.28631 2003 ft 238 kts 131°
2026-05-07 12:11 33.66461 130.30168 2002 ft 239 kts 131°
2026-05-07 12:12 33.65379 130.31728 2015 ft 243 kts 132°
2026-05-07 12:12 33.64332 130.33231 2010 ft 231 kts 132°
2026-05-07 12:12 33.63333 130.34667 1984 ft 217 kts 132°
2026-05-07 12:12 33.62403 130.36011 1952 ft 204 kts 132°
2026-05-07 12:13 33.61500 130.37315 1703 ft 202 kts 132°
2026-05-07 12:13 33.60621 130.38568 1661 ft 186 kts 135°
2026-05-07 12:13 33.59622 130.39448 1552 ft 175 kts 154°
2026-05-07 12:13 33.58538 130.40056 1445 ft 172 kts 154°
2026-05-07 12:14 33.57844 130.40506 1486 ft 171 kts 150°
2026-05-07 12:14 33.56844 130.41242 1503 ft 166 kts 151°
2026-05-07 12:14 33.55880 130.41943 1506 ft 160 kts 151°
2026-05-07 12:14 33.54608 130.42861 1241 ft 159 kts 151°
2026-05-07 12:15 33.53682 130.43516 1122 ft 150 kts 150°
2026-05-07 12:15 33.53124 130.44034 1079 ft 153 kts 131°
2026-05-07 12:15 33.52933 130.45639 1007 ft 156 kts 67°
2026-05-07 12:15 33.53320 130.46364 989 ft 156 kts 51°
2026-05-07 12:16 33.54211 130.47057 881 ft 154 kts 11°
2026-05-07 12:16 33.55276 130.47090 717 ft 152 kts 353°
2026-05-07 12:16 33.56225 130.46684 423 ft 140 kts 332°
2026-05-07 12:16 33.57049 130.46122 210 ft 132 kts 332°
2026-05-07 12:17 33.57849 130.45572 44 ft 131 kts 332°
2026-05-07 12:17 33.58498 130.45130 38 ft 76 kts 330°
2026-05-07 12:17 33.58776 130.44939 34 ft 28 kts 330°
2026-05-07 12:17 33.58928 130.44838 32 ft 23 kts 331°
2026-05-07 12:18 33.59055 130.44753 29 ft 18 kts 329°
2026-05-07 12:18 33.59170 130.44673 27 ft 26 kts 330°
2026-05-07 12:18 33.59301 130.44614 26 ft 15 kts 20°
2026-05-07 12:18 33.59356 130.44687 27 ft 7 kts 56°
2026-05-07 12:19 33.59422 130.44719 29 ft 15 kts 348°
2026-05-07 12:19 33.59516 130.44666 29 ft 15 kts 332°
2026-05-07 12:19 33.59620 130.44594 29 ft 22 kts 330°
2026-05-07 12:19 33.59730 130.44523 29 ft 15 kts 344°
2026-05-07 12:20 33.59812 130.44585 29 ft 14 kts 58°
2026-05-07 12:20 33.59840 130.44643 29 ft 3 kts 60°
2026-05-07 12:20 33.59844 130.44652 29 ft 1 kts 60°
2026-05-07 12:20 33.59845 130.44654 29 ft 0 kts 60°